Regional Weather Roundup
Issued by NWS Sterling, VA

Home | Current Version | Previous Version | Graphics & Text | Print | Product List | Glossary On
Versions: 1 2 3 4 5 6 7 8 9 10 11 12 13 14 15 16 17 18 19 20 21 22 23 24 25 26 27 28
000
ASUS41 KLWX 260010
RWRLWX

REGIONAL WEATHER ROUNDUP
NATIONAL WEATHER SERVICE BALTIMORE MD/WASHINGTON DC
800 PM EDT THU AUG 25 2016

Note: "FAIR" indicates few or no clouds below 12,000 feet
with no significant weather and/or obstructions to visibility.
 TC=TEMPERATURE CELSIUS

 * =Non NWS site. Station does not report precipitation (e.g. rain,
    snow, etc.), thunder, or fog.

DCZ001-MDZ009-015-VAZ040>042-051-053>054-260100-
WASHINGTON METRO

CITY           SKY/WX    TMP DP  RH WIND       PRES   REMARKS
WASHINGTON NAT MOCLDY    85  73  67 S9        30.02R HX  91
DULLES         MOCLDY    84  74  71 S6        30.03R HX  91
ANDREWS AFB    CLEAR     82  73  74 SW7       30.03R
FT BELVOIR     CLEAR     79  75  87 CALM      30.02R
QUANTICO       CLEAR     85  74  69 SW3       30.03R HX  92
LEESBURG*      PTCLDY    86  79  79 S3        30.03S HX  99
MANASSAS*      CLEAR     82  77  83 S3        30.03R HX  91
GAITHERSBURG*  CLOUDY    84  72  65 CALM      30.07R

$$

MDZ006>007-011-014-260100-
BALTIMORE METRO

CITY           SKY/WX    TMP DP  RH WIND       PRES   REMARKS
BWI AIRPORT    PTCLDY    82  73  74 S3        30.01R
MD SCIENCE CTR   N/A     85  72  65 MISG      30.01  HX  91
MARTIN STATE   PTCLDY    82  79  89 SE3       30.02S HX  93
ANNAPOLIS      CLEAR     83  75  77 S7        30.02R HX  90
FORT MEADE*    CLEAR    N/A N/A N/A CALM      30.04R

$$

MDZ012-015-019>023-260100-
MARYLAND EASTERN SHORE

CITY           SKY/WX    TMP DP  RH WIND       PRES   REMARKS
OCEAN CITY     PTCLDY    79  68  69 SW10      30.06S
SALISBURY      CLEAR     77  68  73 S6        30.05R
BAY BRIDGE AP* CLEAR     82  73  74 S8        30.02S
EASTON*        PTCLDY    82  73  74 S7        30.07R

$$

MDZ017>025-260100-
SOUTHERN MARYLAND

CITY           SKY/WX    TMP DP  RH WIND       PRES   REMARKS
PATUXENT RIVER PTCLDY    81  71  71 S7        30.03R
ST INIGOES     CLEAR     81  72  74 SE7       30.03R
LEONARDTOWN*   CLEAR     81  72  74 SE3       30.05R

$$

MDZ003>005-260100-
NORTH CENTRAL MARYLAND

CITY           SKY/WX    TMP DP  RH WIND       PRES   REMARKS
FREDERICK*     CLEAR     84  77  79 S3        30.04R HX  94
HAGERSTOWN APT CLEAR     86  71  60 S9        30.02R HX  91

$$

MDZ501>502-260100-
WESTERN MARYLAND

CITY           SKY/WX    TMP DP  RH WIND       PRES   REMARKS
OAKLAND*       CLEAR     72  70  94 SW9       30.18S
CUMBERLAND*    CLEAR     88  68  51 W3        30.07S HX  91

$$

VAZ025>031-260100-
SHENANDOAH VALLEY

CITY           SKY/WX    TMP DP  RH WIND       PRES   REMARKS
WINCHESTER*    CLOUDY    82  73  74 S3        30.04R
FRONT ROYAL*   FAIR      81  75  83 S5        30.03S
LURAY*         FAIR      82  79  89 CALM      30.05S HX  93
NEW MARKET*    FAIR     N/A N/A N/A CALM      30.03S
STAUNTON*      PTCLDY    80  73  77 S6        30.09S
WAYNESBORO*    FAIR      82  74  76 CALM      30.10R

$$

WVZ021-048>050-054>055-260100-
EASTERN WEST VIRGINIA PANHANDLE

CITY           SKY/WX    TMP DP  RH WIND       PRES   REMARKS
MARTINSBURG    CLOUDY    82  73  74 S5        30.02R
PETERSBURG*    MOCLDY    82  74  76 CALM      30.06R

$$

VAZ036>039-050-260100-
CENTRAL FOOTHILLS

CITY           SKY/WX    TMP DP  RH WIND       PRES   REMARKS
CHARLOTTESVILL PTCLDY    84  76  76 CALM      30.04S HX  93
CULPEPER*      CLEAR     82  78  87 CALM      30.03F HX  90
ORANGE*          N/A     82  79  89 CALM      30.06R HX  93
GORDONSVILLE*  NOT AVBL
WARRENTON*     FAIR      82  72  71 CALM      30.03S

$$

VAZ055>057-260100-
NORTH AND CENTRAL PIEDMONT

CITY           SKY/WX    TMP DP  RH WIND       PRES   REMARKS
FREDERICKSBRG*   N/A     82  76  81 CALM      30.02R HX  90
STAFFORD*      PTCLDY    80  75  83 CALM      30.07R

$$

NCZ024-NYZ072-PAZ021-071-VAZ022-071-260100-
OTHER REGIONAL OBSERVATIONS

CITY           SKY/WX    TMP DP  RH WIND       PRES   REMARKS
NEW YORK CITY    N/A     82  70  65 MISG        N/A
PHILADELPHIA   MOCLDY    83  71  67 SW12      30.02S
PITTSBURGH     CLOUDY    84  72  67 SW9       30.02S
ROANOKE        PTCLDY    84  68  58 CALM      30.11R
RICHMOND       PTCLDY    83  70  64 S5        30.04R
RALEIGH        MOCLDY    84  68  58 S3        30.08R

$$

ANZ530>537-260100-
MARINE OBSERVATIONS

STATION/POSITION TIME  TEMP    WIND        PRES
                       AIR SEA DIR/SP/G
                 (UTC) (F)     (DEG/KT/KT) (MB)
THOMAS PT LIGHT  0000   82 81  170/ 15/ 16 1017.7R
BALT KEY BRIDGE  2342          140/  9/ 10 1016.1R
COVE POINT       2342          190/ 15/ 16 1017.4R
LEWISETTA        2342      83  190/  6/  7 1016.8R
SOLOMONS ISLAND  2342      84  150/  6/  7   N/A
PINEY POINT      2342          170/ 12/ 13   N/A

$$





USA.gov is the U.S. government's official web portal to all federal, state and local government web resources and services.